Flag for Germany Weather past 2 weeks in Chemnitz, Saxony, Germany

Now
52 °F

Partly sunny.


Feels Like: 47 °F
Forecast: 41 / 52 °F
Wind: 14 mph from Southwest

Location: Altenburg Nobitz

Current Time: Dec 18, 2014 at 3:51:44 PM

Latest Report: Dec 18, 2014 at 2:50 PM


Visibility: N/A

Pressure: 29.83 "Hg

Humidity: 94%

Dew point: 50 °F

Location of ChemnitzLocation

Historic Weather in Chemnitz — Graph

°F

Chemnitz temperature yesterday

Maximum temperature yesterday: 39 °F (at 11:20 AM)
Minimum temperature yesterday: 34 °F (at 8:20 AM)
Average temperature yesterday: 38 °F

Past Weeks' High & Low Weather Summary

 TemperatureHumidityPressure
High52 °F (Dec 18, 12:20 PM)100% (Dec 3, 2:20 PM)30.39 "Hg (Dec 3, 2:20 PM)
Low27 °F (Dec 9, 8:50 AM)66% (Dec 15, 1:50 PM)29.56 "Hg (Dec 12, 2:20 PM)
Average40 °F96%29.97 "Hg
* Reported Dec 3 2:20 PM — Dec 18 2:20 PM, Chemnitz, Weather by CustomWeather, © 2014

Note: Actual official high and low records may vary slightly from our data, if they occured in-between our weather recording intervals... More about our weather records

Advertising

Chemnitz weather history for previous 24 hours

 ConditionsComfort  
Time TempWeatherWind HumidityBarometerVisibility
2:20 PM
Dec 18
52 °FPartly sunny.14 mph94%29.86 "HgN/A
1:50 PM52 °FPartly sunny.14 mph94%29.83 "HgN/A
1:20 PM52 °FPartly sunny.13 mph100%29.83 "HgN/A
12:50 PM52 °FPartly sunny.16 mph94%29.86 "HgN/A
12:20 PM52 °FPartly sunny.14 mph100%29.86 "HgN/A
11:50 AM50 °FPartly sunny.14 mph100%29.86 "HgN/A
11:20 AM48 °FPartly sunny.14 mph100%29.89 "HgN/A
10:50 AM48 °FPartly sunny.12 mph100%29.89 "HgN/A
10:20 AM48 °FPartly sunny.14 mph100%29.89 "HgN/A
9:50 AM48 °FPartly sunny.12 mph100%29.89 "HgN/A
9:20 AM46 °FPartly sunny.9 mph100%29.89 "HgN/A
5:50 PM
Dec 17
39 °FPassing clouds.15 mph100%29.68 "HgN/A
5:20 PM39 °FPassing clouds.16 mph100%29.68 "HgN/A
4:50 PM37 °FPassing clouds.14 mph100%29.68 "HgN/A
4:20 PM37 °FPassing clouds.16 mph100%29.68 "HgN/A
3:50 PM37 °FScattered clouds.15 mph100%29.68 "HgN/A
3:20 PM37 °FScattered clouds.15 mph100%29.68 "HgN/A
Weather by CustomWeather, © 2014

See weather overviewHow to use our weather pages